FW3585 Weather Reports


time (UTC)temp
C
wind
direction
speed
KPH
gust
KPH
rain 1hr
cm
rain 24hr
cm
rain mn
cm
humidity
%
barometer
mb
20260502151600 11 329 4.8 12.9 0.00 0.00 0.00 50 1014.8
20260502123025 10 322 6.4 16.1 0.00 0.00 0.00 56 1014.4
20260502121522 10 305 4.8 16.1 0.00 0.00 0.00 56 1014.1
20260502114516 10 5 6.4 14.5 0.00 0.00 0.00 65 1013.8
20260502113015 10 327 1.6 6.4 0.00 0.00 0.00 67 1013.5
20260502111512 10 333 1.6 4.8 0.00 0.00 0.00 67 1013.5
20260502110008 10 360 1.6 8.0 0.00 0.00 0.00 68 1013.6
20260502104505 10 43 1.6 4.8 0.00 0.00 0.00 66 1013.6
20260502103011 10 46 0.0 1.6 0.00 0.00 0.00 67 1013.7
20260502101504 10 17 1.6 6.4 0.00 0.00 0.00 67 1013.8
20260502080103 10 347 4.8 14.5 0.00 0.00 0.00 73 1012.7
20260502070045 10 334 3.2 12.9 0.00 0.00 0.00 80 1012.3
20260502064555 8 13 3.2 8.0 0.00 0.00 0.00 86 1012.5
20260502063041 8 360 3.2 6.4 0.00 0.00 0.00 87 1012.4
20260502061538 9 14 0.0 3.2 0.00 0.00 0.00 86 1012.7
20260502060038 10 15 0.0 0.0 0.00 0.00 0.00 85 1012.5
20260502054534 10 15 0.0 3.2 0.00 0.00 0.00 85 1012.6
20260502053031 10 14 1.6 3.2 0.00 0.00 0.00 84 1012.8
20260502051532 11 14 0.0 4.8 0.00 0.00 0.00 82 1012.8
20260502050026 11 145 0.0 4.8 0.00 0.00 0.00 80 1012.8
20260502044532 11 145 0.0 3.2 0.00 0.00 0.00 79 1012.8
20260502043022 12 147 1.6 8.0 0.00 0.00 0.00 79 1013.0
20260502041521 12 144 0.0 8.0 0.00 0.00 0.00 77 1012.9
20260502040031 12 161 0.0 4.8 0.00 0.00 0.00 77 1013.0
20260502034517 12 180 3.2 8.0 0.00 0.00 0.00 76 1012.8
20260502033014 12 150 3.2 8.0 0.00 0.00 0.00 75 1012.8
20260502031514 13 173 3.2 9.7 0.00 0.00 0.00 74 1012.8
20260502030014 13 188 1.6 9.7 0.00 0.00 0.00 72 1012.8
20260502024521 13 173 4.8 11.3 0.00 0.00 0.00 71 1012.8
20260502023013 13 178 3.2 12.9 0.00 0.00 0.00 69 1012.6
20260502021512 14 165 6.4 16.1 0.00 0.00 0.00 67 1012.5
20260502020011 15 175 4.8 19.3 0.00 0.00 0.00 65 1012.5
20260502014531 15 145 6.4 14.5 0.00 0.00 0.00 62 1012.5
20260502013010 16 171 4.8 12.9 0.00 0.00 0.00 60 1012.4
20260502011510 16 181 3.2 11.3 0.00 0.00 0.00 59 1012.3
20260502010009 16 169 1.6 8.0 0.00 0.00 0.00 57 1011.9
20260502004512 16 176 1.6 6.4 0.00 0.00 0.00 57 1011.5
20260502003008 16 168 3.2 9.7 0.00 0.00 0.00 56 1011.3
20260502001510 16 188 1.6 11.3 0.00 0.00 0.00 55 1010.9
20260502000006 17 192 3.2 11.3 0.00 0.00 0.00 54 1010.8
20260501234506 17 197 3.2 12.9 0.00 0.00 0.00 53 1010.8
20260501233005 17 211 8.0 17.7 0.00 0.00 0.00 51 1010.9
20260501231505 18 191 8.0 16.1 0.00 0.00 0.00 50 1010.9
20260501230006 18 198 6.4 16.1 0.00 0.00 0.00 48 1010.7
20260501224503 18 173 6.4 16.1 0.00 0.00 0.00 46 1010.8
20260501223102 18 179 6.4 17.7 0.00 0.00 0.00 45 1010.9
20260501221600 18 167 4.8 27.4 0.00 0.00 0.00 44 1011.2
20260501221502 18 205 8.0 27.4 0.00 0.00 0.00 44 1011.1
20260501220059 19 213 8.0 30.6 0.00 0.00 0.00 43 1011.1
20260501214559 19 200 9.7 25.7 0.00 0.00 0.00 42 1011.2
20260501213119 19 147 6.4 27.4 0.00 0.00 0.00 42 1011.3
20260501211556 19 188 9.7 25.7 0.00 0.00 0.00 42 1011.5
20260501210058 18 237 12.9 29.0 0.00 0.00 0.00 41 1011.7
20260501204553 19 246 8.0 24.1 0.00 0.00 0.00 43 1011.8
20260501203054 20 236 9.7 19.3 0.00 0.00 0.00 40 1011.8
20260501201552 19 190 8.0 30.6 0.00 0.00 0.00 42 1012.1
20260501200048 19 200 12.9 19.3 0.00 0.00 0.00 40 1012.4
20260501194547 18 136 11.3 29.0 0.00 0.00 0.00 42 1012.6
20260501193043 19 234 6.4 16.1 0.00 0.00 0.00 40 1013.0
20260501191542 18 242 6.4 20.9 0.00 0.00 0.00 38 1013.1
20260501190038 18 223 6.4 20.9 0.00 0.00 0.00 42 1013.4
20260501184535 18 179 0.0 19.3 0.00 0.00 0.00 43 1013.7
20260501183035 18 223 4.8 27.4 0.00 0.00 0.00 45 1013.9
20260501181534 17 109 4.8 14.5 0.00 0.00 0.00 43 1014.2
20260501180037 17 198 4.8 16.1 0.00 0.00 0.00 43 1014.3
20260501174530 17 240 4.8 17.7 0.00 0.00 0.00 41 1014.5
20260501173026 17 200 4.8 24.1 0.00 0.00 0.00 44 1014.6
20260501171529 17 142 9.7 20.9 0.00 0.00 0.00 42 1014.8
20260501170025 16 234 8.0 16.1 0.00 0.00 0.00 41 1015.0
20260501164522 16 136 6.4 11.3 0.00 0.00 0.00 43 1015.3
20260501163021 16 188 4.8 11.3 0.00 0.00 0.00 43 1015.4
20260501161516 16 167 3.2 16.1 0.00 0.00 0.00 44 1015.5
20260501160010 13 101 3.2 14.5 0.00 0.00 0.00 46 1015.6